When you browse on this site, cookies collect data to enhance your experience and personalize the content and advertising you see.
Visit our Privacy Policy to learn more. By continuing to use the site, you agree to this use of cookies and data.

Stündliche Wetter Golyn

Heute, 14 Juli, Dienstag

Zeit Temperatur Niederschläge Wind Luftdruck Luftfeuchtigkeit
00:00 +10°C° 0 mm 2 m/S 749 mmHg 94%
01:00 +10°C° 0 mm 2 m/S 749 mmHg 95%
02:00 +9°C° 0 mm 2 m/S 750 mmHg 96%
03:00 +9°C° 0 mm 2 m/S 749 mmHg 96%
04:00 +9°C° 0 mm 2 m/S 749 mmHg 97%
05:00 +9°C° 0 mm 2 m/S 749 mmHg 97%
06:00 +12°C° 0 mm 2 m/S 749 mmHg 92%
07:00 +13°C° 0 mm 2 m/S 749 mmHg 87%
08:00 +14°C° 0 mm 3 m/S 749 mmHg 82%
09:00 +16°C° 0 mm 3 m/S 749 mmHg 76%
10:00 +18°C° 0 mm 3 m/S 749 mmHg 71%
11:00 +19°C° 0 mm 3 m/S 749 mmHg 65%
12:00 +20°C° 0.1 mm 3 m/S 749 mmHg 64%
13:00 +20°C° 0.1 mm 3 m/S 748 mmHg 63%
14:00 +21°C° 0.1 mm 3 m/S 748 mmHg 61%
15:00 +20°C° 0.1 mm 3 m/S 748 mmHg 61%
16:00 +20°C° 0.1 mm 3 m/S 748 mmHg 62%
17:00 +20°C° 0.1 mm 3 m/S 747 mmHg 62%
18:00 +19°C° 0 mm 3 m/S 747 mmHg 68%
19:00 +18°C° 0 mm 3 m/S 747 mmHg 75%
20:00 +16°C° 0 mm 2 m/S 747 mmHg 82%
21:00 +15°C° 0 mm 2 m/S 747 mmHg 85%
22:00 +14°C° 0 mm 2 m/S 747 mmHg 88%
23:00 +13°C° 0 mm 2 m/S 747 mmHg 91%

Morgen, 15 Juli, Mittwoch

Zeit Temperatur Niederschläge Wind Luftdruck Luftfeuchtigkeit
00:00 +13°C° 0 mm 2 m/S 747 mmHg 92%
01:00 +12°C° 0 mm 2 m/S 747 mmHg 94%
02:00 +12°C° 0 mm 2 m/S 747 mmHg 95%
03:00 +12°C° 0 mm 2 m/S 747 mmHg 96%
04:00 +12°C° 0 mm 2 m/S 747 mmHg 96%
05:00 +12°C° 0 mm 2 m/S 747 mmHg 97%
06:00 +14°C° 0 mm 2 m/S 747 mmHg 91%
07:00 +15°C° 0 mm 2 m/S 748 mmHg 85%
08:00 +17°C° 0 mm 3 m/S 748 mmHg 78%
09:00 +18°C° 0 mm 3 m/S 748 mmHg 72%
10:00 +20°C° 0 mm 3 m/S 747 mmHg 65%
11:00 +21°C° 0 mm 3 m/S 747 mmHg 59%
12:00 +21°C° 0.1 mm 3 m/S 747 mmHg 59%
13:00 +23°C° 0.1 mm 2 m/S 747 mmHg 59%
14:00 +23°C° 0.1 mm 2 m/S 747 mmHg 60%
15:00 +23°C° 0.2 mm 2 m/S 747 mmHg 62%
16:00 +23°C° 0.2 mm 2 m/S 747 mmHg 65%
17:00 +23°C° 0.2 mm 1 m/S 747 mmHg 68%
18:00 +21°C° 0 mm 1 m/S 747 mmHg 72%
19:00 +20°C° 0 mm 1 m/S 747 mmHg 77%
20:00 +19°C° 0 mm 1 m/S 747 mmHg 82%
21:00 +18°C° 0 mm 1 m/S 747 mmHg 84%
22:00 +16°C° 0 mm 1 m/S 747 mmHg 86%
23:00 +15°C° 0 mm 1 m/S 747 mmHg 88%

übermorgen, 16 Juli, Donnerstag

Zeit Temperatur Niederschläge Wind Luftdruck Luftfeuchtigkeit
00:00 +15°C° 0 mm 1 m/S 747 mmHg 90%
01:00 +14°C° 0 mm 1 m/S 747 mmHg 91%
02:00 +14°C° 0 mm 1 m/S 747 mmHg 92%
03:00 +14°C° 0 mm 1 m/S 747 mmHg 92%
04:00 +14°C° 0 mm 1 m/S 747 mmHg 93%
05:00 +14°C° 0 mm 1 m/S 746 mmHg 93%
06:00 +16°C° 0 mm 1 m/S 746 mmHg 88%
07:00 +17°C° 0 mm 2 m/S 746 mmHg 83%
08:00 +19°C° 0 mm 2 m/S 746 mmHg 78%
09:00 +20°C° 0.2 mm 2 m/S 746 mmHg 75%
10:00 +21°C° 0.2 mm 2 m/S 746 mmHg 71%
11:00 +24°C° 0.2 mm 3 m/S 746 mmHg 67%
12:00 +24°C° 0.5 mm 3 m/S 745 mmHg 67%
13:00 +24°C° 0.5 mm 3 m/S 745 mmHg 68%
14:00 +24°C° 0.5 mm 3 m/S 745 mmHg 68%
15:00 +24°C° 0.5 mm 3 m/S 745 mmHg 70%
16:00 +24°C° 0.5 mm 2 m/S 744 mmHg 73%
17:00 +24°C° 0.5 mm 2 m/S 744 mmHg 75%
18:00 +21°C° 0.5 mm 2 m/S 744 mmHg 79%
19:00 +21°C° 0.5 mm 1 m/S 744 mmHg 83%
20:00 +20°C° 0.5 mm 1 m/S 744 mmHg 86%
21:00 +19°C° 0.5 mm 1 m/S 744 mmHg 88%
22:00 +18°C° 0.5 mm 1 m/S 744 mmHg 90%
23:00 +18°C° 0.5 mm 1 m/S 744 mmHg 92%

17 Juli, Freitag

Zeit Temperatur Niederschläge Wind Luftdruck Luftfeuchtigkeit
00:00 +16°C° 0.2 mm 1 m/S 744 mmHg 93%
01:00 +16°C° 0.2 mm 1 m/S 745 mmHg 94%
02:00 +16°C° 0.2 mm 1 m/S 745 mmHg 95%
03:00 +16°C° 0.3 mm 1 m/S 745 mmHg 95%
04:00 +16°C° 0.3 mm 1 m/S 745 mmHg 96%
05:00 +15°C° 0.3 mm 1 m/S 745 mmHg 97%
06:00 +16°C° 0.3 mm 1 m/S 745 mmHg 96%
07:00 +16°C° 0.3 mm 1 m/S 745 mmHg 95%
08:00 +18°C° 0.3 mm 1 m/S 745 mmHg 94%
09:00 +19°C° 0.1 mm 1 m/S 745 mmHg 92%
10:00 +18°C° 0.1 mm 2 m/S 746 mmHg 89%
11:00 +19°C° 0.1 mm 2 m/S 746 mmHg 86%
12:00 +20°C° 0.2 mm 2 m/S 746 mmHg 84%
13:00 +21°C° 0.2 mm 2 m/S 746 mmHg 81%
14:00 +21°C° 0.2 mm 2 m/S 746 mmHg 78%
15:00 +21°C° 0.5 mm 2 m/S 746 mmHg 79%
16:00 +21°C° 0.5 mm 2 m/S 746 mmHg 80%
17:00 +21°C° 0.5 mm 2 m/S 746 mmHg 81%
18:00 +20°C° 0.3 mm 2 m/S 746 mmHg 84%
19:00 +20°C° 0.3 mm 1 m/S 746 mmHg 87%
20:00 +19°C° 0.3 mm 1 m/S 746 mmHg 90%
21:00 +18°C° 0.2 mm 1 m/S 746 mmHg 92%
22:00 +18°C° 0.2 mm 1 m/S 746 mmHg 93%
23:00 +16°C° 0.2 mm 1 m/S 747 mmHg 95%

18 Juli, Samstag

Zeit Temperatur Niederschläge Wind Luftdruck Luftfeuchtigkeit
00:00 +15°C° 0 mm 1 m/S 747 mmHg 95%
01:00 +15°C° 0 mm 1 m/S 747 mmHg 95%
02:00 +15°C° 0 mm 1 m/S 747 mmHg 95%
03:00 +15°C° 0 mm 1 m/S 747 mmHg 96%
04:00 +15°C° 0 mm 1 m/S 747 mmHg 96%
05:00 +15°C° 0 mm 1 m/S 747 mmHg 96%
06:00 +16°C° 0 mm 1 m/S 747 mmHg 93%
07:00 +19°C° 0 mm 1 m/S 748 mmHg 89%
08:00 +20°C° 0 mm 1 m/S 748 mmHg 86%
09:00 +21°C° 0.4 mm 1 m/S 748 mmHg 83%
10:00 +23°C° 0.4 mm 2 m/S 748 mmHg 80%
11:00 +24°C° 0.4 mm 2 m/S 748 mmHg 77%
12:00 +24°C° 0.6 mm 2 m/S 748 mmHg 76%
13:00 +25°C° 0.6 mm 2 m/S 748 mmHg 75%
14:00 +25°C° 0.6 mm 3 m/S 748 mmHg 74%
15:00 +25°C° 1 mm 2 m/S 748 mmHg 75%
16:00 +25°C° 1 mm 2 m/S 748 mmHg 77%
17:00 +25°C° 1 mm 2 m/S 748 mmHg 79%
18:00 +23°C° 0.5 mm 2 m/S 748 mmHg 83%
19:00 +21°C° 0.5 mm 2 m/S 748 mmHg 87%
20:00 +20°C° 0.5 mm 2 m/S 748 mmHg 90%
21:00 +19°C° 0 mm 2 m/S 748 mmHg 92%
22:00 +18°C° 0 mm 2 m/S 748 mmHg 93%
23:00 +17°C° 0 mm 2 m/S 748 mmHg 95%

19 Juli, Sonntag

Zeit Temperatur Niederschläge Wind Luftdruck Luftfeuchtigkeit
00:00 +17°C° 0 mm 2 m/S 748 mmHg 95%
01:00 +17°C° 0 mm 2 m/S 749 mmHg 96%
02:00 +16°C° 0 mm 2 m/S 749 mmHg 96%
03:00 +16°C° 0 mm 2 m/S 749 mmHg 96%
04:00 +16°C° 0 mm 2 m/S 749 mmHg 97%
05:00 +16°C° 0 mm 2 m/S 749 mmHg 97%
06:00 +17°C° 0 mm 2 m/S 749 mmHg 94%
07:00 +19°C° 0 mm 2 m/S 749 mmHg 92%
08:00 +20°C° 0 mm 2 m/S 749 mmHg 89%
09:00 +21°C° 0.4 mm 3 m/S 749 mmHg 84%
10:00 +22°C° 0.4 mm 3 m/S 749 mmHg 78%
11:00 +25°C° 0.4 mm 3 m/S 749 mmHg 73%
12:00 +25°C° 1 mm 3 m/S 748 mmHg 72%
13:00 +25°C° 1 mm 4 m/S 748 mmHg 72%
14:00 +26°C° 1 mm 4 m/S 748 mmHg 71%
15:00 +25°C° 0.3 mm 3 m/S 748 mmHg 72%
16:00 +25°C° 0.3 mm 3 m/S 748 mmHg 72%
17:00 +25°C° 0.3 mm 3 m/S 748 mmHg 72%
18:00 +24°C° 0 mm 3 m/S 748 mmHg 74%
19:00 +21°C° 0 mm 3 m/S 748 mmHg 77%
20:00 +19°C° 0 mm 3 m/S 748 mmHg 80%
21:00 +19°C° 0 mm 2 m/S 748 mmHg 80%
22:00 +18°C° 0 mm 2 m/S 748 mmHg 81%
23:00 +17°C° 0 mm 2 m/S 748 mmHg 82%
Mehr zeigen